Location: Emory University Observatory
(33.7903°N, 84.3267°W)
Time: 18:55:00
(UTC-05:00)

OTV 5 (USA 277) - Pass Details

Date: 08 October 2017
Orbit: 404 x 417 km, 43.0° (Epoch: 07 September)

Event Time Altitude Azimuth Distance (km) Brightness Sun altitude
Rises 21:22:20 0° 258° (WSW) 2,346 ? -27.8°
Reaches altitude 10° 21:24:32 10° 267° (W) 1,484 ? -28.3°
Enters shadow 21:25:42 19° 277° (W) 1,062 ? -28.5°
